cliquez pour ajouter le site Runraid à vos favoris  English version (google)  Retour à l'accueil Ecrire à l'auteur du site Runraid : Michel Jourdan



Les prochaines courses


Les derniers résultats

cliquez pour visualiser la page complète relatant la chronologie des éruptions du Piton de la Fournaise
éruptions Piton de la Fournaise


Ile de La Réunion

 Diagonale des Fous 

Ecrire au créateur du site : Michel Jourdan
Contact


2015-09-05 - Ferney Trail 35km

Pour consulter le palmarès d'un coureur, un clic sur son nom !

Vous avez des remarques, corrections, ... sur ces résultats , un clic sur --> pour me transmettre toute information concernant les classements


Ferney Trail 35km - 2015 : classement des 90 finishers
Place Nom Temps Cat. Club Sexe Clt/cat.
Place Nom Temps Cat. Club Sexe Clt/cat.
1 LAURET JEAN EDDY 03:51:49 SEM COSPI Reunion M 82356
2 ITTOO VISHAL 03:58:15 SEM - M 78861
3 SIMON DESVAUX 03:58:20 SEM - M 79986
4 BAYOL ROMAIN 04:05:56 SEM - M 76433
5 SMITH JENIFER 04:07:42 SEM - M 75895
6 CHUNDY RISHI 04:17:46 SEM - M 75887
7 FABRICE MAReCHALEN 04:21:15 V1M - M 1 V1M 76108
8 SIMME WILLY 04:24:18 SEM - M 7 SEM 79476
9 HERBST ZACK 04:28:08 JUM - M 1 JUM 82351
10 PILOT NICOLAS 04:32:43 SEM - M 8 SEM 75757
11 LA HAUSSE DE LALOUVIERE PHILIPPE 04:34:02 V2M - M 1 V2M 75667
12 CAMANGUE DANIEL 04:43:11 V2M - M 2 V2M 77546
13 ANGOT XAVIER 04:46:42 SEM - M 9 SEM 77832
14 HAU ANDREW 04:47:47 SEM - M 10 SEM 75689
15 JULIEN HENRI 04:50:46 V1M - M 2 V1M 77057
16 HOARAU FRANCO 04:56:51 SEM - M 11 SEM 79852
17 GROSS JEAN PASCAL 04:57:16 SEM - M 12 SEM 77600
18 CIMAN Cecile 05:01:35 V1F RUN ODYSSEA F 1ere F 82357
19 BALVIN PITTEEA LUXIMAN 05:19:46 V1M - M 3 V1M 75744
20 RIVET JEAN MARC 05:19:46 V1M - M 4 V1M 77875
21 LAMARQUE DIDIER 05:19:46 SEM - M 13 SEM 78760
22 BARDEL FRANCOIS 05:29:27 SEM - M 14 SEM 79474
23 PUYOU MATTHIAS 05:34:06 SEM - M 15 SEM 78171
24 BOYER SERGE 05:39:37 V2M ESPIEGLE M 3 V2M 81507
25 GOILOT LAURENCE 05:42:07 SEF - F 2eme F - 1 SEF 81713
26 CHAN QUEE LIN GIM 05:42:09 V2M - M 4 V2M 77503
27 ALIPHON GAEL 05:43:59 SEM - M 16 SEM 75731
28 GERARD VALERIE 05:44:55 V1F - F 3eme F - 2 V1F 81392
29 LALLMON PRANESH 05:46:46 V1M - M 5 V1M 76084
30 GAUNGOO BALKRISHNA 05:47:38 V1M - M 6 V1M 82354
31 ANTONIO LINDSAY 05:47:53 V2M - M 5 V2M 77916
32 RIVET HUGUES 05:48:48 V1M - M 7 V1M 76196
33 EKWOGE MBONG 05:49:45 SEM - M 17 SEM 75771
34 DHAWOL DEVANAND 05:51:16 V2M - M 6 V2M 79447
35 DOGER DE SPEVILLE YANNICK 05:55:44 SEM - M 18 SEM 79158
36 DUPUCHE PATRICE 05:56:22 V1M - M 8 V1M 79811
37 DE BUCHERE XAVIER 06:01:27 V1M - M 9 V1M 75746
38 CARTIER CHARLES 06:03:03 V1M - M 10 V1M 78926
39 LAW HIN CHIN JULIEN 06:05:30 SEM - M 19 SEM 79825
40 KOA WING KERVYN 06:05:39 SEM - M 20 SEM 75640
41 DILMOHAMUD SHEHZAAD 06:06:01 SEM - M 21 SEM 75620
42 SENEQUE OLIVIER 06:08:10 SEM - M 22 SEM 79748
43 COOTHOOPERMAL DIDIER 06:09:24 SEM - M 23 SEM 75649
44 BHIMA SUNEE 06:09:26 V1M - M 11 V1M 79450
45 DOGER DE SPEVILLE PATRICIA 06:09:29 V2F - F 4eme F - 1 V2F 79448
46 BACHEL BRUNO 06:11:06 V2M - M 7 V2M 79826
47 MONTY ALAIN 06:11:12 V2M - M 8 V2M 75962
48 KOK SHUN RAYMOND 06:17:12 V2M - M 9 V2M 76038
49 LIM PAC CHONG VINCENT 06:20:05 SEM - M 24 SEM 75714
50 DRIVER PERCY 06:22:44 SEM - M 25 SEM 77452
51 NAVETTE ROBERT 06:22:58 V2M - M 10 V2M 77239
52 BALGOBHIND HEMLALL 06:26:48 V1M - M 12 V1M 79445
53 APPAYA ASHLEY 06:28:10 SEM - M 26 SEM 75749
54 TUYAU CLARINA 06:29:02 SEF - F 5eme F - 2 SEF 79343
55 CAMOIN JEAN NOEL 06:29:24 V2M - M 11 V2M 79231
56 SING AUBEELUCK YOGANAND 06:30:01 V1M - M 13 V1M 78542
57 PETIT BRUNO 06:30:06 V2M - M 12 V2M 78617
58 GUDAH MANDEO 06:32:42 V2M - M 13 V2M 79903
59 LABIANCA ANDREAS 06:32:57 V1M - M 14 V1M 81489
60 CHAN CHU CHEONG PATRICK 06:33:38 SEM - M 27 SEM 75898
61 POUPART FLORE 06:37:31 SEF - F 6eme F - 3 SEF 77615
62 POUPINEL DE VALENCE ESTELLE 06:39:00 SEF - F 7eme F - 4 SEF 75450
63 D'HOTMAN JEAN LOUP 06:55:41 V1M - M 15 V1M 82348
64 VINCENT STAUB JEAN 06:55:41 V1M - M 16 V1M 81420
65 OOJARAH VIKASH 07:02:42 V1M - M 17 V1M 78723
66 CLAUDE CLENCY AZA JeRoME 07:03:17 V1M - M 18 V1M 76882
67 VAN DER WESTHUIZEN MARITZA 07:03:46 SEF - F 8eme F - 5 SEF 48963
68 RUTNOO RAMJEEET 07:12:43 V1M - M 19 V1M 75194
69 MOOTIEN PAMELA 07:15:56 V2F - F 9eme F - 2 V2F 76086
70 APPADU RAJENDRA 07:20:04 V2M - M 14 V2M 79451
71 CHEVALIER ALAIN 07:22:18 SEM - M 28 SEM 75712
72 LIU KIONG TSE SIK SUN MATHIEU 07:25:10 SEM - M 29 SEM 76252
73 BIGNELL ROSALIND 07:28:17 V1F - F 10eme F - 3 V1F 78642
74 LE BLANC JEAN PAUL 07:36:32 V2M - M 15 V2M 75776
75 ALBERT MARIO 07:37:26 V1M - M 20 V1M 78179
76 LAGOURGUE FReDeRIC 07:42:00 SEM - M 30 SEM 78538
77 ANTONIO DORIS 07:50:40 V1F - F 11eme F - 4 V1F 78917
78 STOUT CLAIRE 07:50:40 V1F - F 12eme F - 5 V1F 77288
79 CELESTIN JEAN CLAUDE 07:50:51 V1M - M 21 V1M 79449
80 MAMET JEAN MAURICE 07:58:48 V2M - M 16 V2M 76330
81 MC INTYRE CHRISTOPHER 08:07:49 V1M - M 22 V1M 75937
82 LE RUN LAURENCE 08:19:31 V1F - F 13eme F - 6 V1F 76451
83 KIM WONG AH CHAM LI 08:22:29 V1M - M 23 V1M 79041
84 LUZ JEAN CHRISTOPHE 08:22:31 V1M - M 24 V1M 82026
85 CHAN CHU CHEONG TAT THONG 08:26:51 V1M - M 25 V1M 75717
86 WONG NG STEFAN 08:26:51 SEM - M 31 SEM 75777
87 NUNDRAN SHEELA 08:29:37 V1F - F 14eme F - 7 V1F 77176
88 OOJORAH VED 08:38:33 SEM - M 32 SEM 76332
89 SAWUCK DEEPAK 08:46:56 V1M - M 26 V1M 79847
90 LE RUN JEAN LUC 08:48:53 V1M - M 27 V1M 76364


ReferencementCe site est listé dans la catégorie Sport : Sports extrêmes Dictionnaire
| Accueil | La Réunion  Vue du ciel | Météo | Cyclones | Volcan | Cirques de Mafate , Cilaos , Salazie | Photos Randonnées | Randonnées Réunion: Randos Espiègle , Courses montagne | Diagonale des Fous |  Marathon des Sables | Voyages Les stats du site | Fonds écran | Plan du site | Blog de runraid | Galerie photos Sport Réunion |